Wind_Speed
25 24 31 34 33 34 35 36 39 41 40 39 39 39 41 43 44 46 48 50 49 45 45 41 44 47 48 50 51 49 51 49 45 43 44 46 46 48 45 38 37 39 42
21 26 28 31 32 32 36 38 41 39 40 40 40 41 41 41 43 45 45 48 49 47 47 49 49 49 47 48 50 50 52 47 44 44 46 46 47 46 41 41 44 47 48
26 31 30 32 36 35 35 39 39 39 39 39 41 43 39 39 44 46 49 51 48 46 46 47 46 46 48 49 49 51 50 45 45 47 47 47 48 42 42 45 47 51 51
29 30 30 32 35 35 37 39 38 35 36 39 40 37 37 42 44 45 45 43 43 42 43 45 46 47 47 48 51 51 47 44 46 47 47 48 43 43 45 46 51 48 40
30 27 31 38 38 40 34 30 31 34 36 38 36 37 40 40 43 43 41 41 41 42 43 44 45 48 49 50 51 49 46 45 47 45 46 42 43 45 46 49 45 36 38
27 21 27 28 36 28 24 28 32 35 35 37 39 39 39 41 41 40 39 41 42 43 45 47 49 52 53 53 54 47 45 47 44 45 41 38 42 46 47 47 37 36 36
32 27 35 27 23 25 28 31 32 32 32 34 33 37 39 41 40 40 41 40 42 44 47 49 51 54 57 55 51 48 47 46 46 45 40 42 45 47 48 40 36 35 36
32 33 36 26 29 24 29 31 27 26 29 31 33 36 38 40 40 40 39 42 44 46 48 50 51 53 52 50 44 45 44 45 42 41 43 47 47 46 46 37 35 35 37
38 38 31 22 25 27 26 27 28 30 33 34 35 37 39 36 35 39 41 45 47 51 52 53 51 52 51 49 43 42 43 39 38 40 43 46 45 47 42 37 38 40 38
41 33 28 27 28 30 28 27 30 33 33 34 36 34 31 36 38 41 43 46 49 51 53 53 52 50 50 47 41 39 39 33 34 38 42 44 44 42 43 43 41 38 39
34 27 27 24 24 26 28 31 31 32 33 34 31 33 37 41 42 43 46 48 52 54 53 52 51 49 49 43 42 39 36 34 37 40 40 41 40 44 43 42 39 39 35
23 23 20 18 20 24 25 27 29 32 32 32 34 38 42 44 45 47 47 51 52 54 53 52 50 49 45 41 37 36 34 35 38 38 38 38 44 39 39 37 33 33 32
16 17 17 20 22 24 26 28 31 33 33 35 39 42 44 47 49 50 51 52 51 50 50 51 49 46 40 37 33 31 32 35 36 35 36 40 38 38 38 34 32 29 25
14 17 19 21 24 26 29 30 32 33 35 38 42 44 47 49 50 52 54 56 54 51 51 49 46 39 36 30 27 29 33 36 32 29 32 39 37 36 34 32 28 25 21
18 20 22 24 26 28 28 32 33 35 38 41 44 46 48 50 54 56 57 57 54 52 48 46 40 36 29 25 25 27 33 34 28 27 32 38 36 34 33 30 26 24 21
23 25 25 27 27 28 31 32 35 38 41 44 46 48 51 54 57 58 58 54 50 46 43 36 32 27 24 20 23 28 32 28 24 25 30 37 34 32 30 27 24 23 21
25 22 24 26 27 30 33 36 39 40 42 46 49 51 55 59 59 57 50 47 44 40 35 28 24 23 18 18 22 26 28 23 21 21 31 35 31 29 29 25 23 20 17
20 22 24 27 30 33 36 39 40 43 46 47 51 55 60 59 53 49 47 43 37 30 25 21 21 17 14 17 20 24 24 19 22 22 29 32 27 28 28 23 21 18 16
21 24 27 30 33 35 37 39 42 44 48 52 56 60 59 51 47 44 39 33 28 23 18 20 18 13 12 15 16 23 19 16 20 19 27 31 26 26 26 20 17 15 14
25 27 31 35 36 37 39 41 44 48 51 55 56 52 47 44 41 35 29 26 19 18 16 17 14 10 11 13 14 20 17 15 18 20 26 26 24 21 23 20 16 13 14
30 33 35 31 34 37 40 44 48 51 52 49 43 41 39 39 34 27 26 22 20 11 14 15 11 7 9 10 13 16 14 13 15 18 23 23 22 22 17 17 14 13 14
28 27 30 34 37 41 44 47 49 47 43 40 37 35 34 34 27 23 23 18 8 13 12 12 10 7 7 8 10 14 13 13 15 16 19 18 20 21 24 20 18 15 15
27 31 35 37 40 44 46 46 41 38 36 34 33 32 31 30 23 20 19 12 10 13 11 10 9 8 7 6 9 11 11 11 14 13 18 15 15 21 20 23 19 19 18
32 35 38 41 44 44 40 37 35 32 30 31 30 30 28 24 19 17 14 11 12 12 9 9 8 7 6 5 5 8 8 7 10 10 13 11 11 18 22 25 21 21 25
36 39 42 43 39 34 32 30 28 27 26 26 27 29 24 20 19 22 12 14 11 10 8 8 8 6 5 5 3 5 5 5 8 7 11 10 12 11 18 17 19 13 16
40 40 38 34 31 29 28 26 25 24 23 24 23 25 24 20 17 16 13 11 10 7 6 6 7 7 7 6 4 2 3 4 5 6 7 9 10 10 10 10 15 17 7
Wind_Direction
269 262 248 266 269 270 276 280 282 283 289 294 296 295 296 296 300 302 303 304 306 304 306 305 307 308 307 305 306 307 312 312 310 310 309 307 307 305 300 296 296 294 291
258 250 254 261 266 274 277 280 283 290 293 296 293 296 299 301 301 300 303 305 303 300 301 305 306 306 308 308 309 310 313 311 309 308 309 309 307 302 295 295 296 297 292
248 250 263 268 274 277 281 281 286 290 294 294 298 298 299 297 303 303 301 302 304 301 303 304 307 310 310 311 311 312 312 309 309 310 311 309 305 298 298 297 295 294 293
268 265 258 256 268 272 272 276 283 289 290 292 295 296 294 301 305 307 309 307 309 310 311 311 312 311 311 312 314 314 311 310 311 312 311 307 301 301 301 301 301 299 294
270 279 279 278 274 264 267 284 286 288 293 294 295 293 296 303 305 307 310 312 311 311 311 312 313 313 315 314 315 314 311 311 312 314 308 306 306 305 305 306 301 295 294
280 264 266 278 277 285 290 294 292 292 290 292 293 296 302 306 309 310 312 310 313 314 315 315 315 315 315 317 316 313 310 311 314 311 308 307 308 308 308 308 297 296 296
264 258 274 288 280 283 288 285 286 289 295 299 299 299 306 310 311 310 311 314 316 315 314 314 315 315 315 317 318 312 312 315 315 312 309 312 312 310 314 303 299 297 295
266 268 276 283 283 277 274 276 285 286 298 304 306 310 312 310 310 311 316 317 318 318 318 318 318 317 318 315 313 311 314 316 311 312 318 317 315 314 313 303 298 300 298
259 267 277 269 268 276 280 282 289 290 298 308 312 313 311 311 314 316 318 316 316 317 317 316 315 314 317 315 312 313 314 312 312 316 317 316 315 317 316 306 302 299 296
258 269 267 262 269 277 281 288 296 298 303 309 310 305 308 312 312 313 312 311 310 312 313 315 316 316 315 313 311 316 311 310 316 315 316 317 319 318 317 313 309 303 301
262 263 273 275 279 283 280 288 291 300 304 302 300 304 309 309 310 311 310 309 310 312 313 317 317 315 315 312 314 316 312 317 319 319 320 321 322 322 321 316 306 301 300
259 261 267 276 280 282 286 294 297 297 296 297 301 305 306 311 313 313 312 312 310 310 313 317 315 313 313 311 316 315 320 320 321 324 324 324 324 323 323 321 318 311 304
247 254 271 277 283 289 291 294 292 292 296 300 302 305 310 311 312 312 309 308 309 310 312 314 312 311 311 314 316 319 321 319 326 330 331 332 332 330 328 329 325 318 313
264 271 279 283 286 288 290 290 291 294 299 303 306 307 308 310 311 309 309 310 309 308 309 311 309 311 312 315 319 321 320 326 330 331 339 345 337 337 338 340 335 331 323
267 269 274 282 286 285 285 286 294 302 306 306 305 306 308 309 310 310 310 310 308 309 308 308 309 310 310 315 320 321 327 329 326 331 338 343 342 342 348 345 342 345 340
268 274 278 284 287 291 294 302 302 302 303 305 306 309 309 309 308 309 310 309 306 304 301 304 306 306 310 319 318 320 328 327 327 333 341 346 349 347 350 351 357 353 353
263 268 282 292 298 301 302 303 302 304 305 307 310 309 309 309 311 313 310 308 308 304 304 305 307 306 313 318 315 319 329 325 330 339 347 349 349 356 356 360 5 4 16
288 293 297 304 305 304 304 304 305 305 308 310 311 312 311 314 313 310 310 307 303 303 303 301 307 309 318 317 317 328 333 328 339 343 351 356 357 5 3 8 16 22 39
295 299 302 303 302 303 305 304 305 308 311 313 312 311 314 314 312 312 309 309 305 302 299 308 309 313 318 315 324 332 338 337 346 353 358 2 7 10 9 17 27 38 54
291 296 299 300 300 301 303 305 308 310 312 312 313 315 316 318 315 312 312 312 298 297 306 312 312 315 316 318 330 342 347 352 356 2 3 6 11 15 19 27 35 49 65
295 296 294 298 304 306 307 307 310 310 309 313 316 318 319 319 315 315 316 314 304 302 311 321 318 307 311 321 340 350 355 360 2 11 6 8 16 26 34 35 46 66 76
291 295 300 303 304 305 307 308 308 310 313 314 318 320 321 317 313 316 318 307 281 314 316 324 329 298 303 325 345 358 7 7 12 12 8 23 42 45 48 51 59 69 82
294 296 299 301 304 306 307 308 310 313 314 316 321 321 323 317 313 316 310 304 306 309 314 322 335 305 300 326 349 2 14 16 11 15 21 47 65 51 46 45 66 77 85
294 298 301 302 304 306 309 310 311 312 316 318 322 326 323 321 317 312 301 292 303 303 312 321 326 321 307 324 339 357 17 19 13 31 43 38 47 47 65 50 63 83 92
296 298 301 307 310 309 307 308 310 312 314 315 320 326 324 318 307 309 306 281 303 310 316 319 317 325 333 322 324 349 18 26 26 38 55 59 52 63 64 46 47 83 96
298 304 306 306 306 305 306 307 307 309 313 314 314 316 325 319 315 297 284 294 281 301 322 325 321 329 330 327 300 265 3 23 36 42 66 70 65 57 53 46 57 46 93
Height
5789 5792 5796 5799 5801 5800 5803 5804 5802 5800 5798 5794 5791 5787 5782 5777 5772 5767 5762 5757 5752 5744 5738 5733 5727 5721 5715 5710 5704 5699 5692 5686 5681 5676 5669 5664 5658 5652 5647 5644 5641 5638 5635
5782 5787 5789 5791 5794 5796 5795 5794 5792 5789 5786 5782 5780 5776 5772 5767 5761 5757 5751 5746 5742 5735 5730 5724 5717 5711 5704 5699 5694 5688 5682 5674 5670 5666 5658 5652 5646 5641 5636 5632 5628 5625 5622
5780 5784 5785 5785 5782 5782 5782 5781 5778 5777 5776 5773 5771 5767 5762 5758 5752 5747 5742 5737 5731 5724 5719 5713 5706 5699 5695 5689 5683 5677 5670 5664 5658 5653 5647 5641 5634 5630 5625 5619 5615 5610 5604
5774 5773 5773 5776 5775 5774 5773 5772 5771 5769 5767 5765 5762 5759 5754 5749 5744 5738 5733 5726 5721 5715 5709 5703 5696 5690 5685 5679 5673 5666 5659 5653 5647 5641 5635 5628 5622 5617 5612 5607 5598 5592 5587
5765 5766 5767 5767 5767 5763 5764 5765 5763 5761 5759 5758 5755 5752 5746 5740 5735 5730 5723 5717 5711 5706 5699 5693 5687 5681 5675 5669 5662 5654 5649 5643 5637 5630 5624 5616 5610 5605 5599 5592 5585 5579 5574
5758 5757 5758 5758 5756 5757 5757 5754 5753 5753 5751 5750 5747 5742 5736 5731 5726 5720 5715 5709 5704 5698 5690 5684 5678 5672 5665 5658 5651 5643 5638 5633 5626 5620 5613 5607 5600 5593 5585 5578 5572 5568 5564
5750 5750 5749 5751 5750 5750 5749 5748 5747 5747 5746 5741 5736 5733 5727 5721 5716 5712 5706 5701 5696 5689 5683 5676 5669 5663 5656 5648 5641 5634 5627 5621 5614 5608 5602 5595 5590 5581 5574 5565 5560 5555 5551
5742 5743 5744 5744 5744 5743 5742 5741 5740 5738 5735 5731 5727 5723 5717 5713 5709 5704 5699 5694 5686 5680 5675 5668 5661 5654 5646 5639 5631 5624 5616 5609 5602 5596 5589 5583 5575 5568 5560 5555 5550 5544 5539
5734 5736 5735 5736 5736 5735 5735 5734 5731 5729 5726 5721 5719 5713 5709 5706 5702 5698 5691 5685 5678 5672 5666 5660 5653 5644 5637 5630 5622 5616 5609 5599 5592 5586 5579 5572 5565 5557 5549 5544 5538 5533 5527
5726 5729 5730 5729 5729 5728 5725 5724 5722 5720 5717 5713 5709 5707 5704 5700 5696 5689 5684 5676 5670 5664 5658 5651 5643 5635 5626 5619 5613 5608 5601 5593 5586 5579 5571 5563 5555 5547 5538 5531 5524 5518 5513
5719 5721 5720 5720 5719 5719 5719 5717 5716 5713 5709 5705 5703 5700 5697 5693 5688 5683 5676 5669 5662 5655 5648 5640 5633 5625 5617 5610 5604 5598 5591 5585 5578 5571 5562 5554 5546 5537 5527 5519 5511 5505 5500
5711 5713 5714 5713 5713 5713 5711 5710 5707 5704 5701 5698 5696 5694 5690 5685 5679 5673 5668 5662 5655 5648 5639 5630 5623 5615 5608 5602 5595 5589 5583 5577 5570 5563 5556 5548 5539 5529 5519 5510 5501 5495 5489
5707 5708 5708 5708 5707 5707 5705 5703 5701 5699 5695 5692 5689 5685 5680 5675 5669 5664 5658 5651 5645 5639 5631 5622 5614 5607 5600 5594 5588 5583 5577 5571 5565 5558 5551 5542 5531 5521 5512 5503 5494 5487 5481
5702 5702 5702 5702 5701 5700 5698 5697 5695 5691 5687 5684 5679 5675 5671 5666 5661 5654 5647 5640 5634 5628 5622 5613 5605 5599 5593 5587 5582 5577 5572 5566 5560 5554 5546 5536 5526 5517 5507 5497 5488 5481 5476
5698 5698 5698 5697 5696 5695 5692 5690 5687 5682 5679 5675 5671 5667 5662 5657 5651 5644 5636 5628 5621 5616 5609 5602 5597 5592 5586 5581 5577 5573 5568 5561 5556 5550 5543 5533 5522 5513 5503 5494 5486 5479 5473
5693 5693 5692 5691 5690 5687 5685 5681 5678 5675 5671 5667 5663 5657 5652 5645 5639 5632 5626 5618 5610 5604 5599 5593 5589 5585 5580 5576 5573 5569 5564 5558 5553 5547 5540 5531 5520 5511 5502 5494 5486 5479 5473
5688 5688 5687 5685 5682 5679 5676 5673 5670 5667 5662 5658 5653 5647 5640 5633 5625 5618 5611 5605 5599 5593 5589 5586 5582 5579 5576 5573 5571 5567 5561 5555 5551 5545 5538 5529 5519 5511 5502 5495 5488 5482 5477
5683 5681 5679 5676 5674 5671 5668 5666 5662 5658 5654 5649 5642 5635 5628 5620 5612 5605 5599 5593 5589 5585 5583 5580 5577 5574 5571 5569 5567 5563 5557 5552 5549 5543 5537 5528 5519 5512 5504 5497 5492 5487 5483
5675 5673 5671 5669 5666 5664 5660 5656 5653 5648 5642 5636 5631 5625 5617 5609 5602 5595 5589 5584 5581 5579 5577 5575 5572 5570 5568 5567 5565 5560 5555 5552 5548 5542 5536 5528 5520 5514 5507 5501 5496 5493 5491
5667 5665 5663 5661 5658 5655 5651 5647 5642 5637 5630 5624 5618 5612 5606 5600 5593 5587 5583 5579 5576 5575 5574 5571 5568 5567 5566 5565 5562 5558 5554 5551 5547 5542 5537 5530 5523 5518 5512 5506 5502 5499 5497
5660 5659 5657 5654 5650 5647 5642 5637 5632 5626 5621 5615 5609 5604 5598 5593 5587 5582 5578 5575 5574 5573 5571 5569 5566 5565 5564 5563 5561 5557 5554 5551 5548 5543 5539 5533 5527 5522 5516 5512 5508 5505 5504
5653 5651 5648 5646 5641 5638 5632 5627 5622 5617 5612 5608 5602 5597 5592 5587 5583 5578 5575 5573 5571 5571 5569 5567 5564 5564 5563 5561 5559 5556 5554 5552 5548 5545 5541 5536 5532 5527 5522 5519 5514 5512 5511
5645 5643 5639 5636 5632 5628 5623 5618 5614 5609 5605 5601 5596 5591 5587 5582 5578 5575 5573 5572 5570 5569 5567 5565 5563 5562 5561 5560 5558 5556 5554 5553 5550 5547 5543 5540 5537 5533 5529 5526 5522 5520 5519
5637 5633 5630 5626 5622 5618 5614 5611 5607 5603 5599 5595 5591 5587 5583 5578 5575 5573 5571 5570 5569 5567 5565 5563 5562 5561 5560 5559 5558 5556 5555 5554 5552 5549 5546 5544 5542 5539 5536 5533 5530 5528 5527
5628 5624 5621 5617 5613 5610 5607 5604 5601 5598 5594 5591 5587 5583 5579 5576 5573 5570 5569 5568 5568 5565 5563 5562 5561 5560 5559 5558 5557 5557 5555 5554 5553 5551 5548 5547 5545 5544 5542 5540 5539 5537 5535
5618 5615 5611 5609 5606 5603 5601 5598 5595 5592 5589 5587 5583 5580 5576 5573 5569 5567 5566 5566 5565 5564 5562 5561 5560 5559 5558 5557 5556 5556 5555 5554 5553 5552 5550 5549 5548 5547 5546 5544 5542 5540 5540